EW1671 Weather Reports


Display with metric or nautical units.
time (UTC)temp
F
wind
direction
speed
MPH
gust
MPH
rain 1hr
in
rain 24hr
in
rain mn
in
humidity
%
barometer
mb
20260509161531 55 120 1.0 3.0 0.00 0.20 0.20 78 1009.2
20260509161033 54 112 1.0 3.0 0.00 0.20 0.20 78 1009.2
20260509160529 54 99 0.0 2.0 0.00 0.20 0.20 78 1009.1
20260509160029 54 99 0.0 3.0 0.00 0.20 0.20 78 1009.0
20260509155526 54 99 0.0 3.0 0.00 0.20 0.20 78 1008.9
20260509155026 54 99 0.0 4.0 0.01 0.20 0.20 77 1008.9
20260509154529 54 99 1.0 4.0 0.01 0.20 0.20 77 1008.7
20260509154027 54 99 1.0 4.0 0.02 0.20 0.20 77 1008.6
20260509153527 54 77 1.0 3.0 0.03 0.20 0.20 76 1008.8
20260509153029 53 49 1.0 5.0 0.04 0.20 0.20 76 1008.7
20260509152526 53 51 2.0 9.0 0.05 0.20 0.20 75 1008.7
20260509152025 53 84 2.0 9.0 0.06 0.20 0.20 75 1008.9
20260509151527 53 103 2.0 9.0 0.07 0.20 0.20 75 1009.0
20260509151025 53 62 1.0 5.0 0.08 0.20 0.20 75 1008.8
20260509150525 53 25 2.0 6.0 0.10 0.20 0.20 76 1008.9
20260509150025 52 25 1.0 5.0 0.12 0.20 0.20 76 1009.1
20260509145525 52 345 1.0 5.0 0.12 0.20 0.20 76 1009.2
20260509145025 52 346 2.0 5.0 0.12 0.19 0.19 77 1009.3
20260509144524 52 332 2.0 5.0 0.13 0.19 0.19 77 1009.4
20260509144023 52 355 2.0 3.0 0.12 0.18 0.18 77 1009.4
20260509143525 52 79 0.0 2.0 0.12 0.17 0.17 77 1009.6
20260509143023 52 81 0.0 2.0 0.12 0.16 0.16 78 1009.7
20260509142522 52 104 0.0 3.0 0.11 0.15 0.15 78 1009.6
20260509142023 52 156 1.0 2.0 0.11 0.14 0.14 77 1009.6
20260509141523 52 184 0.0 0.0 0.11 0.13 0.13 78 1009.6
20260509141023 53 184 0.0 1.0 0.10 0.12 0.12 78 1009.4
20260509140521 53 184 0.0 2.0 0.08 0.10 0.10 78 1009.5
20260509140029 53 184 1.0 2.0 0.07 0.08 0.08 78 1009.4
20260509135524 53 184 0.0 2.0 0.06 0.07 0.07 79 1009.3
20260509135020 53 184 0.0 1.0 0.06 0.07 0.07 79 1009.3
20260509134521 53 184 0.0 1.0 0.05 0.06 0.06 79 1009.3
20260509134020 53 184 0.0 2.0 0.05 0.06 0.06 80 1009.3
20260509133520 53 184 0.0 2.0 0.04 0.05 0.05 80 1009.3
20260509133019 53 184 1.0 2.0 0.03 0.04 0.04 81 1009.3
20260509132519 54 184 1.0 2.0 0.03 0.04 0.04 81 1009.3
20260509132018 54 184 0.0 2.0 0.02 0.03 0.03 81 1009.2
20260509131530 54 184 0.0 2.0 0.01 0.02 0.02 82 1009.2
20260509131017 54 184 0.0 2.0 0.01 0.02 0.02 82 1009.2
20260509130517 54 184 0.0 2.0 0.00 0.01 0.01 82 1009.2
20260509130025 54 184 0.0 3.0 0.00 0.01 0.01 82 1009.2
20260509125518 54 184 1.0 4.0 0.00 0.01 0.01 82 1009.2
20260509125018 54 205 1.0 2.0 0.00 0.01 0.01 82 1009.1
20260509124521 54 205 0.0 2.0 0.00 0.01 0.01 82 1009.2
20260509124015 53 205 0.0 2.0 0.00 0.01 0.01 82 1009.2
20260509123515 53 205 0.0 1.0 0.00 0.01 0.01 81 1009.3
20260509123021 53 205 0.0 0.0 0.01 0.01 0.01 82 1009.3
20260509122514 53 205 0.0 0.0 0.01 0.01 0.01 82 1009.4
20260509122014 53 205 0.0 1.0 0.01 0.01 0.01 82 1009.5
20260509121514 52 205 0.0 5.0 0.01 0.01 0.01 82 1009.4
20260509121113 52 205 0.0 5.0 0.01 0.01 0.01 82 1009.6
20260509120514 52 205 2.0 3.0 0.01 0.01 0.01 81 1009.5
20260509120013 52 212 2.0 3.0 0.01 0.01 0.01 81 1009.5
20260509115513 52 243 0.0 3.0 0.01 0.01 0.01 81 1009.6
20260509115013 52 243 0.0 3.0 0.01 0.01 0.01 81 1009.4
20260509114513 52 243 0.0 5.0 0.01 0.01 0.01 81 1009.5
20260509114012 52 178 1.0 5.0 0.01 0.01 0.01 81 1009.6
20260509113512 52 331 1.0 3.0 0.01 0.01 0.01 81 1009.4
20260509113012 51 331 0.0 3.0 0.00 0.00 0.00 82 1009.2
20260509112511 51 331 2.0 3.0 0.00 0.00 0.00 82 1009.2
20260509112012 51 322 1.0 3.0 0.00 0.00 0.00 83 1009.2
20260509111512 51 195 0.0 5.0 0.00 0.00 0.00 83 1009.3
20260509111012 51 186 2.0 6.0 0.00 0.00 0.00 83 1009.2
20260509110512 51 199 1.0 6.0 0.00 0.00 0.00 82 1009.1
20260509110011 51 210 2.0 4.0 0.00 0.00 0.00 82 1009.0
20260509105511 51 210 0.0 3.0 0.00 0.00 0.00 82 1009.0
20260509105011 51 210 0.0 2.0 0.00 0.00 0.00 82 1009.0
20260509104511 51 210 0.0 2.0 0.00 0.00 0.00 82 1008.8
20260509104010 50 210 0.0 1.0 0.00 0.00 0.00 83 1008.9
20260509103509 51 210 0.0 1.0 0.00 0.00 0.00 83 1008.8
20260509103009 51 210 0.0 2.0 0.00 0.00 0.00 83 1008.8
20260509102510 50 210 0.0 2.0 0.00 0.00 0.00 83 1008.8
20260509102010 50 210 0.0 2.0 0.00 0.00 0.00 82 1008.8
20260509101509 50 210 0.0 2.0 0.00 0.00 0.00 82 1008.6
20260509101010 50 210 0.0 2.0 0.00 0.00 0.00 82 1008.4
20260509100509 51 210 0.0 2.0 0.00 0.00 0.00 82 1008.2
20260509100012 51 210 0.0 2.0 0.00 0.00 0.00 82 1008.3
20260509095509 51 210 0.0 2.0 0.00 0.00 0.00 82 1008.2
20260509095009 51 210 0.0 2.0 0.00 0.00 0.00 82 1008.3
20260509094508 51 210 0.0 2.0 0.00 0.00 0.00 82 1008.4
20260509094008 51 210 0.0 2.0 0.00 0.00 0.00 81 1008.1
20260509093507 52 210 0.0 1.0 0.00 0.00 0.00 81 1008.2
20260509093007 52 210 0.0 1.0 0.00 0.00 0.00 80 1008.2
20260509092506 52 210 0.0 2.0 0.00 0.00 0.00 79 1008.3
20260509092007 52 210 0.0 2.0 0.00 0.00 0.00 79 1008.2
20260509091507 52 210 0.0 0.0 0.00 0.00 0.00 79 1008.2
20260509091006 52 210 0.0 2.0 0.00 0.00 0.00 78 1008.2
20260509090505 52 210 0.0 3.0 0.00 0.00 0.00 78 1008.2
20260509090011 52 210 1.0 4.0 0.00 0.00 0.00 78 1008.2
20260509085507 52 210 0.0 4.0 0.00 0.00 0.00 78 1008.2
20260509085006 52 190 1.0 5.0 0.00 0.00 0.00 79 1008.2
20260509084510 52 160 2.0 5.0 0.00 0.00 0.00 79 1008.2
20260509084005 52 163 1.0 4.0 0.00 0.00 0.00 80 1008.3
20260509083504 52 162 1.0 4.0 0.00 0.00 0.00 80 1008.3
20260509083004 52 155 0.0 3.0 0.00 0.00 0.00 80 1008.4
20260509082503 52 154 0.0 2.0 0.00 0.00 0.00 80 1008.4
20260509082003 52 154 0.0 4.0 0.00 0.00 0.00 80 1008.4
20260509081503 51 154 2.0 4.0 0.00 0.00 0.00 81 1008.4
20260509081003 51 138 1.0 3.0 0.00 0.00 0.00 82 1008.5
20260509080502 51 133 1.0 3.0 0.00 0.00 0.00 82 1008.5
20260509080002 50 129 0.0 3.0 0.00 0.00 0.00 82 1008.5
20260509075501 50 128 0.0 3.0 0.00 0.00 0.00 82 1008.5
20260509075104 51 128 1.0 3.0 0.00 0.00 0.00 82 1008.4
20260509074602 51 127 1.0 3.0 0.00 0.00 0.00 82 1008.4
20260509074059 51 127 1.0 3.0 0.00 0.00 0.00 82 1008.5
20260509073559 51 127 2.0 4.0 0.00 0.00 0.00 82 1008.4
20260509073058 51 125 2.0 5.0 0.00 0.00 0.00 82 1008.4
20260509072600 51 122 2.0 5.0 0.00 0.00 0.00 82 1008.5
20260509072057 51 120 3.0 5.0 0.00 0.00 0.00 81 1008.6
20260509071557 51 110 1.0 5.0 0.00 0.00 0.00 81 1008.6
20260509071055 51 101 2.0 4.0 0.00 0.00 0.00 81 1008.7
20260509070555 51 39 2.0 3.0 0.00 0.00 0.00 81 1008.8
20260509070054 51 4 0.0 3.0 0.00 0.00 0.00 81 1008.8
20260509065554 51 4 1.0 4.0 0.00 0.00 0.00 81 1008.9
20260509065054 51 4 2.0 4.0 0.00 0.00 0.00 81 1008.8
20260509064552 51 356 1.0 3.0 0.00 0.00 0.00 80 1008.9
20260509064050 51 356 0.0 2.0 0.00 0.00 0.00 80 1008.9
20260509063549 52 356 1.0 2.0 0.00 0.00 0.00 80 1009.0
20260509063101 52 356 1.0 3.0 0.00 0.00 0.00 79 1008.9
20260509062548 52 356 1.0 3.0 0.00 0.00 0.00 79 1008.9
20260509062048 52 25 0.0 4.0 0.00 0.00 0.00 79 1009.0
20260509061548 52 25 0.0 4.0 0.00 0.00 0.00 78 1009.0
20260509061047 52 30 1.0 2.0 0.00 0.00 0.00 78 1008.9
20260509060547 52 30 0.0 1.0 0.00 0.00 0.00 78 1008.9
20260509060052 52 30 0.0 1.0 0.00 0.00 0.00 78 1009.1
20260509055546 52 30 0.0 2.0 0.00 0.00 0.00 78 1009.0
20260509055046 52 30 0.0 2.0 0.00 0.00 0.00 77 1009.1
20260509054545 52 30 0.0 0.0 0.00 0.00 0.00 79 1009.2
20260509054045 52 30 0.0 0.0 0.00 0.00 0.00 78 1009.2
20260509053544 52 30 0.0 0.0 0.00 0.00 0.00 78 1009.2
20260509053110 53 30 0.0 2.0 0.00 0.00 0.00 78 1009.2
20260509052545 53 30 0.0 2.0 0.00 0.00 0.00 78 1009.2
20260509052044 53 30 1.0 2.0 0.00 0.00 0.00 78 1009.3
20260509051544 53 30 0.0 2.0 0.00 0.00 0.00 77 1009.3
20260509051043 53 30 0.0 2.0 0.00 0.00 0.00 76 1009.3
20260509050544 53 30 1.0 2.0 0.00 0.00 0.00 76 1009.2
20260509050041 53 97 1.0 3.0 0.00 0.00 0.00 76 1009.1
20260509045539 53 97 1.0 4.0 0.00 0.00 0.00 76 1009.1
20260509045038 53 98 1.0 4.0 0.00 0.00 0.00 76 1009.0
20260509044536 53 99 1.0 3.0 0.00 0.00 0.00 76 1009.2
20260509044035 53 99 1.0 3.0 0.00 0.00 0.00 77 1009.1
20260509043534 53 89 1.0 3.0 0.00 0.00 0.00 78 1009.4
20260509043041 53 87 1.0 3.0 0.00 0.00 0.00 78 1009.4
20260509042533 52 156 0.0 2.0 0.00 0.00 0.00 78 1009.6
20260509042036 53 156 0.0 2.0 0.00 0.00 0.00 79 1009.6
20260509041542 53 156 0.0 2.0 0.00 0.00 0.00 79 1009.5
20260509041034 53 156 0.0 2.0 0.00 0.00 0.00 79 1009.7
20260509040530 53 156 0.0 2.0 0.00 0.00 0.00 78 1009.7
20260509040031 53 156 0.0 2.0 0.00 0.00 0.00 78 1009.6
20260509035529 53 184 0.0 2.0 0.00 0.00 0.00 78 1009.7
20260509035029 53 184 0.0 2.0 0.00 0.00 0.00 78 1009.7
20260509034530 53 184 0.0 4.0 0.00 0.00 0.00 77 1009.7
20260509034028 53 184 1.0 4.0 0.00 0.00 0.00 77 1009.7
20260509033528 53 163 2.0 4.0 0.00 0.00 0.00 78 1009.6
20260509033028 53 339 0.0 2.0 0.00 0.00 0.00 77 1009.7
20260509032527 53 339 0.0 2.0 0.00 0.00 0.00 77 1009.8
20260509032027 53 339 0.0 2.0 0.00 0.00 0.00 77 1009.8
20260509031529 53 339 0.0 3.0 0.00 0.00 0.00 77 1010.0
20260509031028 54 339 0.0 4.0 0.00 0.00 0.00 77 1010.0
20260509030528 54 345 2.0 4.0 0.00 0.00 0.00 77 1010.1
20260509030028 54 350 0.0 4.0 0.00 0.00 0.00 77 1010.2
20260509025527 54 51 2.0 4.0 0.00 0.00 0.00 77 1010.0
20260509025027 54 16 1.0 4.0 0.00 0.00 0.00 77 1010.0
20260509024526 55 14 2.0 4.0 0.00 0.00 0.00 75 1010.0
20260509024028 55 8 0.0 4.0 0.00 0.00 0.00 74 1010.1
20260509023527 54 101 2.0 4.0 0.00 0.00 0.00 72 1009.8
20260509023026 54 202 0.0 2.0 0.00 0.00 0.00 74 1010.0
20260509022526 54 202 0.0 2.0 0.00 0.00 0.00 75 1010.0
20260509022026 54 202 1.0 2.0 0.00 0.00 0.00 74 1010.0
20260509021526 54 202 0.0 2.0 0.00 0.00 0.00 76 1010.1
20260509021025 54 202 0.0 2.0 0.00 0.00 0.00 76 1010.1
20260509020525 54 202 1.0 2.0 0.00 0.00 0.00 76 1010.1
20260509020026 54 202 1.0 2.0 0.00 0.00 0.00 75 1010.1
20260509015525 54 202 1.0 3.0 0.00 0.00 0.00 76 1010.0
20260509015025 54 203 1.0 3.0 0.00 0.00 0.00 76 1010.0
20260509014524 54 165 1.0 3.0 0.00 0.00 0.00 75 1010.1
20260509014027 54 165 0.0 3.0 0.00 0.00 0.00 74 1010.0
20260509013524 55 156 1.0 3.0 0.00 0.00 0.00 73 1010.0
20260509013024 55 156 1.0 3.0 0.00 0.00 0.00 73 1009.9
20260509012527 55 156 1.0 3.0 0.00 0.00 0.00 71 1009.9
20260509012024 55 160 2.0 3.0 0.00 0.00 0.00 71 1009.9
20260509011528 55 160 1.0 3.0 0.00 0.00 0.00 71 1009.8
20260509011023 55 160 1.0 2.0 0.00 0.00 0.00 71 1009.7
20260509010523 55 160 1.0 3.0 0.00 0.00 0.00 71 1009.6
20260509010037 55 160 2.0 4.0 0.00 0.00 0.00 71 1009.6
20260509005526 55 168 2.0 4.0 0.00 0.00 0.00 70 1009.7
20260509005026 55 320 2.0 3.0 0.00 0.00 0.00 70 1009.6
20260509004527 56 320 0.0 1.0 0.00 0.00 0.00 69 1009.6
20260509004022 56 320 0.0 0.0 0.00 0.00 0.00 68 1009.6
20260509003523 56 320 0.0 2.0 0.00 0.00 0.00 67 1009.7
20260509003023 56 320 0.0 2.0 0.00 0.00 0.00 67 1009.7
20260509002523 56 320 0.0 2.0 0.00 0.00 0.00 67 1009.7
20260509002023 56 320 0.0 2.0 0.00 0.00 0.00 66 1009.7
20260509001522 57 320 0.0 1.0 0.00 0.00 0.00 66 1009.6
20260509001021 57 320 0.0 1.0 0.00 0.00 0.00 64 1009.5
20260509000521 58 320 0.0 1.0 0.00 0.00 0.00 65 1009.4
20260509000021 58 320 0.0 2.0 0.00 0.00 0.00 62 1009.4
20260508235521 59 320 0.0 3.0 0.00 0.00 0.00 60 1009.5
20260508235022 60 320 1.0 3.0 0.00 0.00 0.00 59 1009.5
20260508234524 61 263 1.0 2.0 0.00 0.00 0.00 58 1009.5
20260508234022 61 260 0.0 3.0 0.00 0.00 0.00 58 1009.5
20260508233523 61 260 0.0 3.0 0.00 0.00 0.00 56 1009.4
20260508233020 62 261 1.0 3.0 0.00 0.00 0.00 56 1009.4
20260508232519 62 284 0.0 4.0 0.00 0.00 0.00 55 1009.3
20260508232019 62 284 1.0 4.0 0.00 0.00 0.00 56 1009.3
20260508231519 62 289 1.0 5.0 0.00 0.00 0.00 56 1009.2
20260508231022 62 290 2.0 5.0 0.00 0.00 0.00 55 1009.3
20260508230519 62 297 1.0 5.0 0.00 0.00 0.00 56 1009.3
20260508230033 62 333 2.0 8.0 0.00 0.00 0.00 55 1009.3
20260508225519 62 342 3.0 8.0 0.00 0.00 0.00 55 1009.3
20260508225019 62 345 1.0 7.0 0.00 0.00 0.00 56 1009.4
20260508224523 62 2 1.0 5.0 0.00 0.00 0.00 56 1009.4
20260508224018 62 317 2.0 5.0 0.00 0.00 0.00 56 1009.4
20260508223519 62 334 1.0 5.0 0.00 0.00 0.00 55 1009.6
20260508223018 62 341 1.0 5.0 0.00 0.00 0.00 56 1009.5
20260508222521 62 291 1.0 7.0 0.00 0.00 0.00 55 1009.5
20260508222017 62 281 2.0 7.0 0.00 0.00 0.00 54 1009.5
20260508221535 62 252 1.0 8.0 0.00 0.00 0.00 54 1009.5
20260508221017 62 328 2.0 8.0 0.00 0.00 0.00 53 1009.5
20260508220520 62 278 2.0 9.0 0.00 0.00 0.00 54 1009.5
20260508220017 62 277 3.0 9.0 0.00 0.00 0.00 54 1009.4
20260508215517 62 282 3.0 9.0 0.00 0.00 0.00 55 1009.3
20260508215017 62 297 3.0 10.0 0.00 0.00 0.00 54 1009.3
20260508214517 62 253 3.0 10.0 0.00 0.00 0.00 56 1009.3
20260508214016 62 239 3.0 7.0 0.00 0.00 0.00 54 1009.3
20260508213517 62 274 1.0 7.0 0.00 0.00 0.00 55 1009.4
20260508213022 62 250 2.0 7.0 0.00 0.00 0.00 54 1009.4
20260508212516 62 284 1.0 7.0 0.00 0.00 0.00 56 1009.3
20260508212017 62 286 1.0 8.0 0.00 0.00 0.00 56 1009.2
20260508211516 62 294 0.0 8.0 0.00 0.00 0.00 55 1009.2
20260508211015 62 233 2.0 8.0 0.00 0.00 0.00 55 1009.3
20260508210515 62 305 1.0 9.0 0.00 0.00 0.00 55 1009.3
20260508210016 62 324 2.0 11.0 0.00 0.00 0.00 53 1009.3
20260508205515 62 259 1.0 11.0 0.00 0.00 0.00 53 1009.3
20260508205019 62 241 2.0 8.0 0.00 0.00 0.00 53 1009.3
20260508204514 62 261 2.0 8.0 0.00 0.00 0.00 51 1009.3
20260508204016 62 290 1.0 5.0 0.00 0.00 0.00 52 1009.3
20260508203513 62 280 1.0 10.0 0.00 0.00 0.00 51 1009.4
20260508203013 62 322 3.0 10.0 0.00 0.00 0.00 51 1009.5
20260508202514 62 126 2.0 8.0 0.00 0.00 0.00 53 1009.4
20260508202013 63 285 2.0 9.0 0.00 0.00 0.00 51 1009.5
20260508201514 63 233 3.0 9.0 0.00 0.00 0.00 51 1009.4
20260508201013 63 264 3.0 9.0 0.00 0.00 0.00 50 1009.4
20260508200513 64 266 1.0 10.0 0.00 0.00 0.00 52 1009.5
20260508200013 63 304 3.0 11.0 0.00 0.00 0.00 50 1009.4
20260508195512 63 259 4.0 11.0 0.00 0.00 0.00 49 1009.5
20260508195012 63 233 2.0 13.0 0.00 0.00 0.00 53 1009.6
20260508194511 63 346 2.0 13.0 0.00 0.00 0.00 50 1009.7
20260508194010 63 230 3.0 10.0 0.00 0.00 0.00 51 1009.7
20260508193514 63 309 5.0 11.0 0.00 0.00 0.00 49 1009.6
20260508193010 63 228 3.0 11.0 0.00 0.00 0.00 51 1009.7
20260508192610 63 298 4.0 11.0 0.00 0.00 0.00 48 1009.6
20260508192009 63 208 3.0 9.0 0.00 0.00 0.00 50 1009.7
20260508191510 64 39 2.0 9.0 0.00 0.00 0.00 49 1009.7
20260508191008 64 260 3.0 13.0 0.00 0.00 0.00 50 1009.7
20260508190508 64 264 3.0 14.0 0.00 0.00 0.00 48 1009.7
20260508190007 64 309 4.0 14.0 0.00 0.00 0.00 46 1009.7
20260508185511 65 208 2.0 6.0 0.00 0.00 0.00 49 1009.9
20260508185007 65 232 1.0 6.0 0.00 0.00 0.00 51 1009.9
20260508184507 65 322 2.0 7.0 0.00 0.00 0.00 49 1009.9
20260508184006 65 260 2.0 8.0 0.00 0.00 0.00 50 1009.9
20260508183506 66 176 3.0 8.0 0.00 0.00 0.00 51 1009.9
20260508183006 66 237 4.0 11.0 0.00 0.00 0.00 50 1009.8
20260508182507 65 69 4.0 19.0 0.00 0.00 0.00 50 1010.1
20260508182010 65 290 4.0 19.0 0.00 0.00 0.00 49 1010.2
20260508181514 66 255 4.0 12.0 0.00 0.00 0.00 47 1010.2
20260508181005 66 253 1.0 10.0 0.00 0.00 0.00 47 1010.2
20260508180508 66 332 3.0 10.0 0.00 0.00 0.00 51 1010.2
20260508180004 66 223 5.0 10.0 0.00 0.00 0.00 51 1010.2
20260508175503 66 279 1.0 12.0 0.00 0.00 0.00 50 1010.3
20260508175003 66 348 2.0 12.0 0.00 0.00 0.00 55 1010.4
20260508174603 65 347 2.0 10.0 0.00 0.00 0.00 52 1010.5
20260508174100 64 218 2.0 14.0 0.00 0.00 0.00 58 1010.6
20260508173600 64 209 4.0 16.0 0.00 0.00 0.00 50 1010.6
20260508173100 64 217 2.0 16.0 0.00 0.00 0.00 53 1010.7
20260508172557 64 311 2.0 15.0 0.00 0.00 0.00 54 1010.7
20260508172057 64 229 4.0 13.0 0.00 0.00 0.00 52 1010.8
20260508171607 64 221 3.0 13.0 0.00 0.00 0.00 52 1010.9
20260508171056 64 45 3.0 14.0 0.00 0.00 0.00 56 1011.0
20260508170556 64 139 4.0 9.0 0.00 0.00 0.00 55 1011.2
20260508170059 63 234 3.0 10.0 0.00 0.00 0.00 55 1011.3
20260508165553 63 232 4.0 10.0 0.00 0.00 0.00 56 1011.4
20260508165052 62 304 2.0 9.0 0.00 0.00 0.00 58 1011.4
20260508164550 62 258 3.0 9.0 0.00 0.00 0.00 55 1011.4
20260508164050 61 264 2.0 9.0 0.00 0.00 0.00 55 1011.5
20260508163548 61 240 4.0 9.0 0.00 0.00 0.00 57 1011.6
20260508163048 60 303 1.0 8.0 0.00 0.00 0.00 57 1011.7
20260508162548 60 251 3.0 8.0 0.00 0.00 0.00 60 1011.8
20260508162053 59 245 2.0 7.0 0.00 0.00 0.00 56 1011.9